Le nostre stazioni meteo in Italia

Pubblicità
Il mio iltempo24.it
Lentran, Gran Bretagna (99125): Temperatura & dewpoint: 17.01.2017 18:00:00 - 23.01.2017 18:00:00 (GMT)Lentran, Gran Bretagna (99125): precipitazioni: 17.01.2017 18:00:00 - 23.01.2017 18:00:00 (GMT)
Data & Tempo tt [°C] td [°C] rr [mm]
23.01.2017 18:00:00 2,2 0,8 0,0
23.01.2017 17:00:00 2,8 -0,3 0,0
23.01.2017 16:00:00 4,2 -0,2 0,0
23.01.2017 15:00:00 3,6 -0,9 0,0
23.01.2017 14:00:00 3,6 -0,9 0,0
23.01.2017 13:00:00 2,4 -0,6 0,0
23.01.2017 12:00:00 3,1 -0,3 0,0
23.01.2017 11:00:00 2,3 0,0 0,0
23.01.2017 10:00:00 1,1 -1,1 0,0
23.01.2017 09:00:00 3,2 -0,5 0,0
23.01.2017 08:00:00 2,6 0,0 0,0
23.01.2017 07:00:00 3,1 0,6 0,0
23.01.2017 06:00:00 1,8 0,4 0,0
23.01.2017 05:00:00 2,7 0,9 0,0
23.01.2017 04:00:00 3,7 1,4 0,0
23.01.2017 03:00:00 3,8 1,6 0,0
23.01.2017 02:00:00 3,8 1,8 0,0
23.01.2017 01:00:00 3,4 1,6 0,0
23.01.2017 00:00:00 3,6 1,6 0,0
22.01.2017 23:00:00 3,2 1,4 0,0
22.01.2017 22:00:00 2,4 1,3 0,0
22.01.2017 21:00:00 2,8 1,1 0,0
22.01.2017 20:00:00 3,2 1,5 0,0
22.01.2017 19:00:00 3,3 1,4 0,0
22.01.2017 18:00:00 3,2 1,4 0,0
22.01.2017 17:00:00 3,1 1,2 0,0
22.01.2017 16:00:00 3,2 1,1 0,0
22.01.2017 15:00:00 3,0 1,3 0,0
22.01.2017 14:00:00 3,1 1,3 0,0
22.01.2017 13:00:00 2,2 0,8 0,0
22.01.2017 12:00:00 1,5 0,4 0,6
22.01.2017 11:00:00 1,3 0,7 0,0
22.01.2017 10:00:00 -0,8 -1,2 0,0
22.01.2017 09:00:00 -0,3 -1,0 0,0
22.01.2017 08:00:00 -0,5 -1,3 0,0
22.01.2017 07:00:00 0,5 0,1 0,0
22.01.2017 06:00:00 -0,6 -1,0 0,0
22.01.2017 05:00:00 -0,8 -1,2 0,0
22.01.2017 04:00:00 0,3 -0,4 0,0
22.01.2017 03:00:00 -0,5 -1,2 0,0
22.01.2017 02:00:00 -1,4 -1,8 0,0
22.01.2017 01:00:00 -2,2 -2,9 0,0
22.01.2017 00:00:00 -1,4 -2,1 0,0
21.01.2017 23:00:00 1,0 -1,4 0,0
21.01.2017 22:00:00 -0,4 -1,6 0,0
21.01.2017 21:00:00 -0,3 -1,3 0,0
21.01.2017 20:00:00 0,2 -0,9 0,0
21.01.2017 19:00:00 -0,2 -1,1 0,0
21.01.2017 18:00:00 0,3 -0,2 0,0
21.01.2017 17:00:00 -0,1 -0,6 0,0
21.01.2017 16:00:00 0,6 0,2 0,0
21.01.2017 15:00:00 1,1 0,6 0,0
21.01.2017 14:00:00 1,4 1,2 0,0
21.01.2017 13:00:00 0,8 0,6 0,0
21.01.2017 12:00:00 0,3 0,3 0,0
21.01.2017 11:00:00 -0,3 -0,3 0,0
21.01.2017 10:00:00 -1,3 -1,5 0,0
21.01.2017 09:00:00 -2,0 -2,4 0,0
21.01.2017 08:00:00 -0,7 -0,7 0,0
21.01.2017 07:00:00 -0,9 -1,4 0,0
21.01.2017 06:00:00 0,7 0,0 0,0
21.01.2017 05:00:00 -1,0 -1,0 0,0
21.01.2017 04:00:00 -1,5 -1,7 0,0
21.01.2017 03:00:00 -1,6 -1,6 0,0
21.01.2017 02:00:00 -1,6 -1,6 0,0
21.01.2017 01:00:00 -1,3 -1,3 0,0
21.01.2017 00:00:00 -1,2 -1,3 0,0
20.01.2017 23:00:00 -1,0 -1,1 0,0
20.01.2017 22:00:00 -0,6 -0,6 0,0
20.01.2017 21:00:00 -0,3 -0,3 0,0
20.01.2017 20:00:00 0,0 0,0 0,0
20.01.2017 19:00:00 0,3 0,2 0,0
20.01.2017 18:00:00 1,0 0,9 0,0
20.01.2017 17:00:00 1,3 1,1 0,0
20.01.2017 16:00:00 2,2 1,9 0,0
20.01.2017 15:00:00 2,7 2,5 0,0
20.01.2017 14:00:00 3,0 2,7 0,0
20.01.2017 13:00:00 2,5 1,9 0,0
20.01.2017 12:00:00 3,0 2,2 0,0
20.01.2017 11:00:00 3,0 1,9 0,0
20.01.2017 10:00:00 3,6 2,2 0,0
20.01.2017 09:00:00 3,3 2,0 0,0
20.01.2017 08:00:00 3,4 1,9 0,0
20.01.2017 07:00:00 4,6 2,3 0,0
20.01.2017 06:00:00 5,1 2,9 0,0
20.01.2017 05:00:00 5,3 3,2 0,0
20.01.2017 04:00:00 5,3 3,0 0,0
20.01.2017 03:00:00 6,1 3,6 0,0
20.01.2017 02:00:00 5,7 3,4 0,0
20.01.2017 01:00:00 6,6 4,1 0,0
20.01.2017 00:00:00 6,1 4,1 0,0
19.01.2017 23:00:00 6,7 3,8 0,0
19.01.2017 22:00:00 7,2 4,1 0,0
19.01.2017 21:00:00 7,3 3,9 0,0
19.01.2017 20:00:00 7,3 4,2 0,0
19.01.2017 19:00:00 7,1 4,0 0,0
19.01.2017 18:00:00 7,0 4,2 0,0
19.01.2017 17:00:00 6,8 3,9 0,0
19.01.2017 16:00:00 8,1 4,1 0,0
19.01.2017 15:00:00 8,6 4,4 0,0
19.01.2017 14:00:00 8,6 4,2 0,0
19.01.2017 13:00:00 8,9 4,4 0,0
19.01.2017 12:00:00 8,6 4,4 0,0
19.01.2017 11:00:00 8,2 4,1 0,0
19.01.2017 10:00:00 7,8 4,3 0,0
19.01.2017 09:00:00 7,3 4,0 0,0
19.01.2017 08:00:00 7,5 3,9 0,0
19.01.2017 07:00:00 7,9 4,2 0,0
19.01.2017 06:00:00 7,6 4,5 0,0
19.01.2017 05:00:00 7,5 4,8 0,0
19.01.2017 04:00:00 7,2 4,8 0,0
19.01.2017 03:00:00 7,3 4,8 0,0
19.01.2017 02:00:00 7,6 5,2 0,0
19.01.2017 01:00:00 7,4 5,3 0,0
19.01.2017 00:00:00 6,8 4,9 0,0
18.01.2017 23:00:00 6,0 4,8 0,0
18.01.2017 22:00:00 6,0 4,5 0,0
18.01.2017 21:00:00 6,5 4,9 0,0
18.01.2017 20:00:00 7,0 4,8 0,0
18.01.2017 19:00:00 7,4 5,6 0,0
18.01.2017 18:00:00 6,8 5,0 0,0
18.01.2017 17:00:00 7,4 5,2 0,0
18.01.2017 16:00:00 7,4 4,8 0,0
18.01.2017 15:00:00 8,1 5,0 0,0
18.01.2017 14:00:00 8,4 4,9 0,0
18.01.2017 13:00:00 8,4 4,8 0,0
18.01.2017 12:00:00 7,9 4,6 0,0
18.01.2017 11:00:00 7,6 4,6 0,0
18.01.2017 10:00:00 7,1 4,5 0,0
18.01.2017 09:00:00 7,0 4,3 0,0
18.01.2017 08:00:00 7,2 4,2 0,0
18.01.2017 07:00:00 7,2 3,9 0,0
18.01.2017 06:00:00 7,3 3,8 0,0
18.01.2017 05:00:00 7,2 3,7 0,0
18.01.2017 04:00:00 7,4 3,8 0,0
18.01.2017 03:00:00 7,4 4,1 0,0
18.01.2017 02:00:00 7,4 4,0 0,0
18.01.2017 01:00:00 7,2 3,8 0,0
18.01.2017 00:00:00 6,8 4,0 0,0
17.01.2017 23:00:00 6,1 3,6 0,0
17.01.2017 22:00:00 7,0 3,9 0,0
17.01.2017 21:00:00 7,5 4,6 0,0
17.01.2017 20:00:00 7,6 5,1 0,0
17.01.2017 19:00:00 8,3 6,3 0,0
17.01.2017 18:00:00 8,2 6,8 0,0

tt = Temperatura
td = dewpoint
rr = precipitazioni

Stazioni seguenti

WeatherPro
AMSI
MeteoEarth